[[{"header":{"parameterUnit":"m.s-1","parameterCategory":1,"la1":30.2991,"la2":30.254,"lo1":-89.0895,"lo2":-89.0444,"dy":0.0017,"dx":0.0017,"nx":28,"ny":28,"refTime":"2025-06-09T21:00:00:Z","depth":0,"parameterNumber":2,"parameterNumberName":"U-component_of_WINDS"},"data":[0,0,0,0,0,0,0,0,0,0,0,0,0,0,0,0,0,0,0,0,0,0,0,0,0,0,0,0,0,0,0,0,0,0,0,0,0,0,0,0,0,0,0,0,0,0,0,0,0,0,0,0,0,0,0,0,0,0,3.0679,3.068,0,3.0757,3.0758,3.0759,3.0701,3.0699,3.0696,3.0694,3.0779,3.0784,3.0789,0,0,0,0,0,0,0,0,0,0,0,0,0,3.0483,3.0487,3.0679,3.068,3.0681,3.0757,3.0758,3.0759,3.0702,3.0698,3.0695,3.0692,3.0778,3.0783,3.0789,0,0,0,0,0,0,0,0,0,0,0,0,0,3.0566,3.0489,3.0679,3.0661,3.066,3.0757,3.0758,3.0759,3.0702,3.0698,3.0695,3.0691,3.0776,3.0783,3.079,3.0909,0,0,3.0811,3.0814,0,0,0,0,0,0,0,0,3.0561,3.0573,3.0663,3.0663,3.0662,3.0715,3.0721,3.081,3.0703,3.0687,3.0694,3.0689,3.0762,3.077,3.0793,3.0913,3.0917,3.0812,3.0816,3.0819,3.0821,0,0,0,0,0,0,0,3.0556,3.0569,3.071,3.0664,3.0664,3.0651,3.0658,3.0737,3.0745,3.0688,3.0684,3.0693,3.0761,3.0786,3.0794,3.0918,3.0812,3.0818,3.0822,3.0825,3.1139,3.1143,0,0,0,0,0,0,3.0551,3.0565,3.0708,3.0712,3.0601,3.0657,3.0666,3.0702,3.0744,3.0746,3.0697,3.069,3.0776,3.0786,3.0797,3.0938,3.0819,3.0825,3.0829,3.1135,3.114,3.1144,0,0,0,0,0,0,3.0547,3.0564,3.0704,3.0638,3.0654,3.0665,3.0706,3.0706,3.0731,3.075,3.0752,3.0721,3.0773,3.0787,3.0881,3.094,3.0829,3.0835,3.113,3.1136,3.1142,3.1222,0,0,0,0,0,0,3.0542,3.0563,3.0608,3.0639,3.0658,3.0786,3.071,3.071,3.0743,3.0735,3.0774,3.0776,3.0772,3.0871,3.0888,3.0948,3.084,3.1125,3.1133,3.114,3.1214,3.123,3.1244,0,0,0,0,0,3.0535,3.0629,3.0611,3.0628,3.0714,3.079,3.0801,3.0792,3.0748,3.0793,3.0805,3.0775,3.0931,3.0881,3.09,3.0963,3.1121,3.113,3.1139,3.1208,3.1227,3.1244,0,0,0,0,0,0,3.0608,3.0633,3.0613,3.072,3.0753,3.078,3.0837,3.0813,3.0861,3.0852,3.084,3.085,3.0947,3.0965,3.0908,3.1079,3.1019,3.1033,3.1064,3.1083,3.1098,3.1091,3.0846,0,0,0,0,0,3.0635,3.0693,3.0713,3.0806,3.0823,3.0827,3.086,3.0849,3.0884,3.0898,3.0917,3.0953,3.101,3.1048,3.1101,3.1217,3.1223,3.1269,3.1284,3.1296,3.1308,3.1368,3.1388,3.1175,3.1175,3.1175,0,0,3.0695,3.0716,3.0754,3.0821,3.0845,3.0905,3.0839,3.0907,3.0952,3.0909,3.0997,3.1013,3.1052,3.1156,3.1203,3.1174,3.1368,3.1308,3.1318,3.1323,3.138,3.14,3.1418,3.1181,3.118,3.1179,0,0,3.0833,3.0856,3.0934,3.0959,3.0995,3.0997,3.1016,3.1047,3.1054,3.1142,3.111,3.1165,3.1263,3.1292,3.1319,3.1466,3.144,3.1484,3.1562,3.1621,3.1638,3.1653,3.1704,3.1722,3.1496,3.1496,3.1496,0,3.0903,3.0992,3.0978,3.1047,3.1077,3.1038,3.1117,3.1143,3.1196,3.1218,3.1184,3.1305,3.1329,3.1438,3.1474,3.1498,3.1519,3.148,3.1636,3.1651,3.1665,3.1713,3.1732,3.1501,3.1501,3.15,3.15,0,3.1074,3.1136,3.1196,3.1245,3.1282,3.1356,3.1354,3.1393,3.1379,3.1385,3.1474,3.1501,3.1558,3.1584,3.1573,3.1692,3.1672,3.1637,3.1576,3.169,3.1735,3.1754,3.1508,3.1507,3.1505,3.1504,0,0,3.1262,3.13,3.1322,3.1343,3.138,3.1428,3.15,3.1554,3.1587,3.1625,3.1685,3.1768,3.1735,3.1766,3.1758,3.181,3.1922,3.1768,3.1769,3.1795,3.2053,3.2077,3.2099,3.1905,3.1908,3.1911,3.2049,0,3.1401,3.1524,3.1513,3.163,3.1686,3.165,3.1712,3.1742,3.1749,3.1799,3.1807,3.1865,3.1819,3.1837,3.1886,3.1898,3.1973,3.1888,3.196,3.1963,3.195,3.2123,3.215,3.2279,3.2067,3.207,3.2072,0,3.158,3.162,3.1743,3.1768,3.1792,3.1848,3.1895,3.1943,3.1976,3.1977,3.2011,3.1992,3.2065,3.2003,3.2103,3.2044,3.2074,3.2084,3.2088,3.2094,3.2024,3.2132,3.232,3.2339,3.21,3.2098,3.2096,0,3.1702,3.1788,3.1871,3.1891,3.1924,3.1964,3.1979,3.2008,3.204,3.2082,3.2103,3.2154,3.2181,3.2221,3.2217,3.2172,3.2318,3.2256,3.2321,3.2322,3.2354,3.2352,3.2547,3.2375,3.2374,3.2374,3.2373,0,3.1858,3.1933,3.1926,3.1978,3.2061,3.2048,3.2131,3.2143,3.2168,3.2221,3.2194,3.2245,3.2237,3.2288,3.2286,3.2368,3.2381,3.2384,3.2383,3.2386,3.2386,3.2405,3.2395,3.2379,3.2378,3.2377,3.2376,0,3.2008,3.2006,3.2095,3.2117,3.2125,3.2185,3.2205,3.2254,3.2258,3.2325,3.2341,3.2347,3.2406,3.2406,3.2474,3.2472,3.2572,3.2561,3.256,3.2557,3.2622,3.2616,3.2836,3.2864,3.2674,3.2676,3.2678,0,3.2107,3.2164,3.2192,3.2224,3.2242,3.2296,3.2327,3.2316,3.2351,3.2391,3.2435,3.249,3.2534,3.2629,3.2641,3.2692,3.2681,3.2754,3.2689,3.2689,3.268,3.2676,3.2681,3.2767,3.2769,3.2771,3.2773,0,3.2282,3.2278,3.2324,3.2369,3.2407,3.2443,3.2476,3.2505,3.2498,3.2538,3.2596,3.2629,3.2697,3.2752,3.2801,3.2818,3.2794,3.2793,3.2811,3.2814,3.2811,3.2812,3.2594,3.2788,3.2787,3.2785,3.2785,3.2784,3.2409,3.2457,3.2483,3.2535,3.2558,3.2589,3.2635,3.2643,3.2691,3.2743,3.2734,3.2799,3.2829,3.2891,3.2913,3.2964,3.2938,3.2964,3.297,3.2977,3.2983,3.2803,3.2973,3.2973,3.2972,3.2972,3.2971,0,3.2581,3.2596,3.2644,3.2689,3.273,3.2702,3.2736,3.2772,3.2829,3.2858,3.29,3.2966,3.3019,3.3034,3.3085,3.3122,3.3113,3.3136,3.3133,3.3137,3.3004,3.2983,3.3143,3.3143,3.3143,3.3143,3.3143,3.3143,3.2676,3.2755,3.2753,3.2843,3.2858,3.2919,3.2941,3.2969,3.2992,3.3066,3.3109,3.3117,3.314,3.3192,3.3239,3.3242,3.3262,3.3289,3.3288,3.3164,3.3146,3.313,3.311,3.3294,3.3294,3.3416,3.3418,3.3418]},{"header":{"parameterUnit":"m.s-1","parameterCategory":1,"la1":30.2991,"la2":30.254,"lo1":-89.0895,"lo2":-89.0444,"dy":0.0017,"dx":0.0017,"nx":28,"ny":28,"refTime":"2025-06-09T21:00:00:Z","depth":0,"parameterNumber":3,"parameterNumberName":"V-component_of_WINDS"},"data":[0,0,0,0,0,0,0,0,0,0,0,0,0,0,0,0,0,0,0,0,0,0,0,0,0,0,0,0,0,0,0,0,0,0,0,0,0,0,0,0,0,0,0,0,0,0,0,0,0,0,0,0,0,0,0,0,0,0,2.7876,2.7876,0,2.7919,2.792,2.792,2.7855,2.7853,2.785,2.7848,2.7889,2.7893,2.7896,0,0,0,0,0,0,0,0,0,0,0,0,0,2.7732,2.7735,2.7876,2.7876,2.7877,2.7919,2.792,2.792,2.7855,2.7852,2.785,2.7847,2.7888,2.7892,2.7896,0,0,0,0,0,0,0,0,0,0,0,0,0,2.7787,2.7736,2.7876,2.785,2.7848,2.7919,2.792,2.7921,2.7856,2.7852,2.7849,2.7846,2.7887,2.7892,2.7897,2.7995,0,0,2.7911,2.7913,0,0,0,0,0,0,0,0,2.7783,2.7792,2.7853,2.7852,2.785,2.7878,2.7884,2.7945,2.7857,2.7853,2.7848,2.7844,2.7888,2.7893,2.7908,2.7997,2.7998,2.7912,2.7915,2.7917,2.7918,0,0,0,0,0,0,0,2.778,2.779,2.7893,2.7854,2.7852,2.7834,2.7838,2.7895,2.7889,2.7853,2.7848,2.7854,2.7887,2.7904,2.7909,2.7999,2.7912,2.7916,2.7919,2.7921,2.8167,2.8171,0,0,0,0,0,0,2.778,2.7787,2.7892,2.7894,2.7808,2.7839,2.7844,2.7872,2.7888,2.7887,2.7857,2.7851,2.7897,2.7903,2.791,2.8024,2.7917,2.7921,2.7924,2.8163,2.8168,2.8172,0,0,0,0,0,0,2.7777,2.779,2.789,2.7839,2.7851,2.7846,2.7878,2.7875,2.7892,2.7892,2.789,2.7876,2.7895,2.7903,2.7974,2.8025,2.7923,2.7928,2.8159,2.8165,2.817,2.8255,0,0,0,0,0,0,2.7773,2.7789,2.7828,2.7841,2.7854,2.7955,2.7881,2.7878,2.7901,2.7894,2.7909,2.7908,2.7893,2.7967,2.7979,2.803,2.7932,2.8155,2.8162,2.8168,2.8248,2.8263,2.8276,0,0,0,0,0,2.7768,2.785,2.783,2.7843,2.7902,2.7958,2.7965,2.7947,2.7906,2.7943,2.7942,2.7908,2.8018,2.7975,2.7987,2.8041,2.8151,2.816,2.8168,2.8241,2.826,2.8275,0,0,0,0,0,0,2.7842,2.7851,2.7829,2.7918,2.7938,2.7947,2.7994,2.7967,2.7998,2.799,2.7964,2.7968,2.8044,2.8049,2.8001,2.8135,2.8077,2.8088,2.8129,2.8147,2.816,2.8157,2.7936,0,0,0,0,0,2.7869,2.7915,2.7919,2.7997,2.8008,2.8,2.8023,2.8007,2.8026,2.8034,2.8038,2.8057,2.8095,2.8121,2.8157,2.8248,2.8249,2.8291,2.8305,2.8316,2.8326,2.8373,2.8391,2.8199,2.8199,2.8199,0,0,2.7924,2.7935,2.7965,2.8012,2.8026,2.8072,2.8007,2.8059,2.8093,2.8041,2.8108,2.8112,2.8131,2.8212,2.8248,2.8219,2.8379,2.8327,2.8336,2.8339,2.8383,2.8401,2.8417,2.8204,2.8203,2.8202,0,0,2.8049,2.8063,2.8128,2.8142,2.8164,2.8157,2.8173,2.8186,2.8186,2.8253,2.8215,2.8254,2.8321,2.8336,2.8352,2.848,2.8448,2.8492,2.8565,2.8611,2.8626,2.864,2.8684,2.87,2.8502,2.8502,2.8502,0,2.8115,2.8185,2.8164,2.8219,2.824,2.8196,2.826,2.8275,2.8307,2.8321,2.8289,2.8371,2.8381,2.8463,2.8495,2.851,2.8525,2.849,2.8626,2.8639,2.8651,2.8693,2.871,2.8507,2.8507,2.8506,2.8506,0,2.8264,2.8313,2.8363,2.8395,2.8421,2.8481,2.8467,2.8496,2.8477,2.8474,2.8541,2.8551,2.8587,2.8605,2.8587,2.8685,2.8666,2.863,2.8572,2.8675,2.8714,2.873,2.8514,2.8513,2.8511,2.851,0,0,2.8438,2.8457,2.8475,2.8488,2.8508,2.8544,2.8601,2.8636,2.8661,2.8683,2.8729,2.8786,2.8752,2.8771,2.8754,2.8794,2.8893,2.8753,2.8753,2.8778,2.9,2.9026,2.9046,2.8873,2.8876,2.8878,2.8998,0,2.8561,2.866,2.8642,2.8737,2.8781,2.8739,2.8787,2.8804,2.8801,2.8837,2.8833,2.8874,2.8827,2.8837,2.8876,2.8873,2.8937,2.8864,2.8913,2.8915,2.8909,2.9066,2.9095,2.9207,2.9013,2.9016,2.9018,0,2.8719,2.8747,2.8848,2.8858,2.8876,2.892,2.895,2.8985,2.9002,2.8997,2.9017,2.8992,2.9046,2.8987,2.906,2.9011,2.9029,2.9031,2.9035,2.9038,2.8972,2.9073,2.9243,2.926,2.9042,2.904,2.9038,0,2.8833,2.8897,2.8965,2.8977,2.8992,2.9024,2.9031,2.9045,2.9067,2.9093,2.9106,2.9138,2.9155,2.918,2.9163,2.9122,2.9239,2.9178,2.9235,2.9235,2.9261,2.926,2.9436,2.9275,2.9274,2.9274,2.9274,0,2.8973,2.9035,2.9016,2.9058,2.9126,2.9104,2.9171,2.9173,2.9185,2.9225,2.919,2.9228,2.9204,2.9239,2.9227,2.9288,2.9296,2.9293,2.9289,2.9296,2.9296,2.9307,2.9298,2.9278,2.9277,2.9277,2.9276,0,2.9112,2.9103,2.9173,2.9181,2.9184,2.9234,2.924,2.9278,2.9272,2.9323,2.9333,2.9325,2.9364,2.935,2.9393,2.9384,2.9462,2.9448,2.9457,2.9453,2.951,2.9504,2.9699,2.9722,2.9547,2.9549,2.955,0,2.9202,2.9249,2.9261,2.9286,2.9296,2.9336,2.9358,2.9338,2.9362,2.9384,2.9418,2.9455,2.9483,2.9549,2.9545,2.9577,2.9562,2.9628,2.9567,2.9572,2.9562,2.9559,2.9563,2.964,2.9642,2.9644,2.9646,0,2.936,2.9353,2.9387,2.9419,2.9447,2.9471,2.9491,2.9513,2.9493,2.9522,2.9563,2.9585,2.9628,2.9664,2.9692,2.9698,2.9668,2.9665,2.9679,2.9687,2.9689,2.9688,2.9489,2.966,2.9659,2.9658,2.9657,2.9656,2.9476,2.9515,2.953,2.9569,2.9582,2.9602,2.9638,2.9637,2.967,2.9704,2.969,2.9736,2.9749,2.9784,2.9794,2.9829,2.9803,2.9824,2.983,2.9835,2.9842,2.9685,2.9834,2.9834,2.9833,2.9833,2.9832,0,2.9632,2.9639,2.9675,2.9705,2.9735,2.9705,2.9726,2.9753,2.9794,2.981,2.9838,2.9884,2.9919,2.9918,2.9949,2.9977,2.9964,2.9986,2.9983,2.9985,2.9864,2.9848,2.9996,2.9996,2.9996,2.9996,2.9996,2.9996,2.9716,2.978,2.9774,2.9844,2.985,2.9896,2.9911,2.9928,2.994,2.9993,3.0022,3.0021,3.003,3.0061,3.0091,3.009,3.0103,3.013,3.0123,3.001,2.9994,2.9978,2.9963,3.0133,3.0133,3.0241,3.0242,3.0243]}]]